Location: York
(31.8935°S, 116.7682°E)
Time: 18:17:50
(UTC+08:00)

Envisat - Visible Passes

Search period start: 30 September 2022 00:00
Search period end: 10 October 2022 00:00
Orbit: 764 x 765 km, 98.2° (Epoch: 29 September)

Date Brightness Start Highest point End Pass type
(mag) Time Alt. Az. Time Alt. Az. Time Alt. Az.
30 Sep 5.7 02:36:04 10° E 02:38:54 15° ESE 02:41:45 10° SSE visible
30 Sep 3.1 04:14:47 26° NNW 04:17:24 51° W 04:22:24 10° SSW visible
01 Oct 3.3 03:36:49 19° NNE 03:40:29 65° ESE 03:45:34 10° S visible
01 Oct 4.8 05:18:35 10° WNW 05:19:49 11° W 05:21:04 10° WSW visible
02 Oct 4.9 02:59:31 10° NE 03:03:45 27° ESE 03:08:00 10° SSE visible
02 Oct 3.8 04:38:59 13° NNW 04:42:35 28° W 04:46:57 10° SW visible
03 Oct 6.0 02:25:40 10° E 02:27:13 11° ESE 02:28:45 10° SE visible
03 Oct 2.9 04:00:55 13° N 04:05:32 69° WNW 04:10:40 10° SSW visible
04 Oct 3.9 03:23:47 10° NNE 03:28:40 48° ESE 03:33:36 10° S visible
04 Oct 4.5 05:05:01 10° NW 05:07:52 15° W 05:10:43 10° WSW visible
05 Oct 5.3 02:48:16 10° ENE 02:51:59 21° ESE 02:55:44 10° SSE visible
05 Oct 3.5 04:26:01 10° NNW 04:30:41 36° W 04:35:25 10° SSW visible
06 Oct 2.9 03:48:35 10° NNE 03:53:41 90° ESE 03:58:51 10° SSW visible
07 Oct 4.4 03:12:14 10° NE 03:16:53 37° ESE 03:21:34 10° S visible
07 Oct 4.2 04:52:15 10° NW 04:55:55 20° W 04:59:37 10° SW visible
08 Oct 5.7 02:37:15 10° ENE 02:40:16 16° ESE 02:43:18 10° SSE visible
08 Oct 3.1 04:13:53 10° N 04:18:47 48° W 04:23:46 10° SSW visible
09 Oct 3.2 03:36:48 10° NNE 03:41:51 68° ESE 03:46:58 10° S visible
